Volver al catálogo

RADCAL

ActivoMilitarPO
NORAD 22698·PAYLOAD·🇺🇸 United States

Lanzado Jun 25, 1993 desde Vandenberg Space Force Base

Loading…

Próximos Pases (próximas 24 horas)

TLE

ActualizadoSource: Space-Track

Época: Sep 14, 2026, 10:06 UTC

1 22698U 93041A   26257.42132977  .00000110  00000-0  40921-4 0  9993
2 22698  89.5000  55.2200 0085978 253.7686 105.4034 14.24202862724897

Sigue RADCAL en tiempo real con AllMySat

Download on the App Store